Time,TemperatureF,DewpointF,PressureIn,WindDirection,WindDirectionDegrees,WindSpeedMPH,WindSpeedGustMPH,Humidity,HourlyPrecipIn,Conditions,Clouds,dailyrainin,SoftwareType,DateUTC
2013-07-27 00:12:00,76.9,74.0,30.01,SE,135,0.0,1.0,91,0.01,,,0.00,weatherlink.com 1.10,2013-07-27 04:12:00,
2013-07-27 00:28:00,76.8,74.0,30.00,SE,142,0.0,2.0,91,0.01,,,0.00,weatherlink.com 1.10,2013-07-27 04:28:00,
2013-07-27 00:43:00,76.4,74.0,30.00,SE,129,0.0,2.0,91,0.01,,,0.00,weatherlink.com 1.10,2013-07-27 04:43:00,
2013-07-27 00:58:00,76.2,74.0,29.99,SE,131,0.0,2.0,92,0.00,,,0.00,weatherlink.com 1.10,2013-07-27 04:58:00,
2013-07-27 01:13:00,76.0,73.0,29.99,SE,127,0.0,1.0,91,0.00,,,0.00,weatherlink.com 1.10,2013-07-27 05:13:00,
2013-07-27 01:28:00,75.6,73.0,29.98,SE,124,0.0,1.0,92,0.00,,,0.00,weatherlink.com 1.10,2013-07-27 05:28:00,
2013-07-27 01:43:00,75.7,73.0,29.98,SE,131,0.0,1.0,92,0.00,,,0.00,weatherlink.com 1.10,2013-07-27 05:43:00,
2013-07-27 01:58:00,75.7,73.0,29.98,SE,136,0.0,2.0,91,0.00,,,0.00,weatherlink.com 1.10,2013-07-27 05:58:00,
2013-07-27 02:13:00,75.9,74.0,29.98,SE,136,0.0,0.0,92,0.00,,,0.00,weatherlink.com 1.10,2013-07-27 06:13:00,
2013-07-27 02:28:00,76.3,74.0,29.97,SSW,200,0.0,1.0,93,0.00,,,0.00,weatherlink.com 1.10,2013-07-27 06:28:00,
2013-07-27 02:43:00,76.5,74.0,29.97,West,259,2.0,2.0,92,0.00,,,0.00,weatherlink.com 1.10,2013-07-27 06:43:00,
2013-07-27 02:58:00,75.9,74.0,29.97,ESE,121,0.0,1.0,92,0.00,,,0.00,weatherlink.com 1.10,2013-07-27 06:58:00,
2013-07-27 03:13:00,76.2,74.0,29.97,ESE,110,0.0,1.0,92,0.00,,,0.00,weatherlink.com 1.10,2013-07-27 07:13:00,
2013-07-27 03:28:00,75.9,73.0,29.96,ESE,110,0.0,1.0,91,0.00,,,0.00,weatherlink.com 1.10,2013-07-27 07:28:00,
2013-07-27 03:43:00,75.7,73.0,29.96,ESE,110,0.0,1.0,92,0.00,,,0.00,weatherlink.com 1.10,2013-07-27 07:43:00,
2013-07-27 03:58:00,75.3,73.0,29.97,ENE,77,0.0,1.0,91,0.00,,,0.00,weatherlink.com 1.10,2013-07-27 07:58:00,
2013-07-27 04:13:00,75.1,72.0,29.97,ENE,78,0.0,1.0,91,0.00,,,0.00,weatherlink.com 1.10,2013-07-27 08:13:00,
2013-07-27 04:28:00,74.8,72.0,29.96,ENE,77,0.0,0.0,92,0.00,,,0.00,weatherlink.com 1.10,2013-07-27 08:28:00,
2013-07-27 04:43:00,74.9,73.0,29.96,ENE,78,1.0,1.0,93,0.00,,,0.00,weatherlink.com 1.10,2013-07-27 08:43:00,
2013-07-27 04:58:00,74.8,72.0,29.96,ESE,123,0.0,1.0,92,0.00,,,0.00,weatherlink.com 1.10,2013-07-27 08:58:00,
2013-07-27 05:13:00,74.6,72.0,29.96,ESE,123,0.0,2.0,92,0.00,,,0.00,weatherlink.com 1.10,2013-07-27 09:13:00,
2013-07-27 05:28:00,74.5,72.0,29.96,ESE,123,0.0,0.0,92,0.00,,,0.00,weatherlink.com 1.10,2013-07-27 09:28:00,
2013-07-27 05:43:00,74.5,72.0,29.97,ESE,123,0.0,0.0,92,0.00,,,0.00,weatherlink.com 1.10,2013-07-27 09:43:00,
2013-07-27 05:58:00,74.6,72.0,29.97,ESE,123,0.0,1.0,92,0.00,,,0.00,weatherlink.com 1.10,2013-07-27 09:58:00,
2013-07-27 06:13:00,74.4,72.0,29.97,ESE,123,0.0,0.0,92,0.00,,,0.00,weatherlink.com 1.10,2013-07-27 10:13:00,
2013-07-27 06:28:00,74.8,72.0,29.98,ESE,122,0.0,1.0,92,0.00,,,0.00,weatherlink.com 1.10,2013-07-27 10:28:00,
2013-07-27 06:43:00,75.6,73.0,29.98,ESE,123,0.0,1.0,91,0.00,,,0.00,weatherlink.com 1.10,2013-07-27 10:43:00,
2013-07-27 06:58:00,76.2,73.0,29.98,ESE,123,0.0,1.0,90,0.00,,,0.00,weatherlink.com 1.10,2013-07-27 10:58:00,
2013-07-27 07:13:00,77.3,74.0,29.98,ESE,123,0.0,1.0,89,0.00,,,0.00,weatherlink.com 1.10,2013-07-27 11:13:00,
2013-07-27 07:28:00,79.3,75.0,29.99,ESE,123,0.0,0.0,86,0.00,,,0.00,weatherlink.com 1.10,2013-07-27 11:28:00,
2013-07-27 07:43:00,81.7,75.0,29.99,SE,124,0.0,1.0,81,0.00,,,0.00,weatherlink.com 1.10,2013-07-27 11:43:00,
2013-07-27 07:58:00,82.5,76.0,29.99,SE,124,0.0,1.0,80,0.00,,,0.00,weatherlink.com 1.10,2013-07-27 11:58:00,
2013-07-27 08:13:00,82.4,76.0,29.98,SE,128,0.0,1.0,81,0.00,,,0.00,weatherlink.com 1.10,2013-07-27 12:13:00,
2013-07-27 08:28:00,83.2,77.0,29.99,ESE,115,1.0,4.0,82,0.00,,,0.00,weatherlink.com 1.10,2013-07-27 12:28:00,
2013-07-27 08:44:00,84.1,77.0,29.98,East,98,3.0,6.0,80,0.00,,,0.00,weatherlink.com 1.10,2013-07-27 12:44:00,
2013-07-27 08:59:00,84.5,77.0,29.98,ESE,115,2.0,7.0,78,0.00,,,0.00,weatherlink.com 1.10,2013-07-27 12:59:00,
2013-07-27 09:14:00,83.6,77.0,29.98,East,90,5.0,7.0,79,0.00,,,0.00,weatherlink.com 1.10,2013-07-27 13:14:00,
2013-07-27 09:29:00,83.4,76.0,29.98,East,100,5.0,8.0,79,0.00,,,0.00,weatherlink.com 1.10,2013-07-27 13:29:00,
2013-07-27 09:44:00,84.9,77.0,29.99,East,87,1.0,6.0,78,0.00,,,0.00,weatherlink.com 1.10,2013-07-27 13:44:00,
2013-07-27 09:59:00,86.1,78.0,29.98,ESE,120,1.0,7.0,76,0.00,,,0.00,weatherlink.com 1.10,2013-07-27 13:59:00,
2013-07-27 10:14:00,87.4,77.0,29.98,ENE,77,2.0,5.0,72,0.00,,,0.00,weatherlink.com 1.10,2013-07-27 14:14:00,
2013-07-27 10:33:00,88.2,77.0,29.98,ESE,113,2.0,4.0,69,0.00,,,0.00,weatherlink.com 1.10,2013-07-27 14:33:00,
2013-07-27 10:40:00,87.8,76.4,29.98,SSW,212,2.0,2.0,69,0.00,,,0.00,Wunderground v.1.15,2013-07-27 14:40:00,
2013-07-27 10:45:00,87.9,76.0,29.98,SE,139,1.0,1.0,68,0.00,,,0.00,Wunderground v.1.15,2013-07-27 14:45:00,
2013-07-27 10:59:00,86.8,75.0,29.98,ESE,114,2.0,7.0,68,0.00,,,0.00,weatherlink.com 1.10,2013-07-27 14:59:00,
2013-07-27 11:14:00,86.2,75.0,29.98,NE,40,7.0,11.0,70,0.00,,,0.00,weatherlink.com 1.10,2013-07-27 15:14:00,
2013-07-27 11:29:00,86.3,76.0,29.98,ENE,67,2.0,6.0,71,0.00,,,0.00,weatherlink.com 1.10,2013-07-27 15:29:00,
2013-07-27 11:44:00,86.5,76.0,29.98,SSE,164,2.0,5.0,70,0.00,,,0.00,weatherlink.com 1.10,2013-07-27 15:44:00,
2013-07-27 11:59:00,85.3,77.0,29.98,South,190,2.0,5.0,77,0.01,,,0.01,weatherlink.com 1.10,2013-07-27 15:59:00,
2013-07-27 12:14:00,86.3,78.0,29.97,WSW,253,1.0,4.0,75,0.01,,,0.01,weatherlink.com 1.10,2013-07-27 16:14:00,
2013-07-27 12:29:00,87.9,77.0,29.97,East,96,2.0,4.0,70,0.01,,,0.01,weatherlink.com 1.10,2013-07-27 16:29:00,
2013-07-27 12:44:00,87.2,75.0,29.97,East,79,7.0,7.0,68,0.01,,,0.01,weatherlink.com 1.10,2013-07-27 16:44:00,
2013-07-27 12:59:00,87.2,74.0,29.96,East,93,4.0,5.0,65,0.00,,,0.01,weatherlink.com 1.10,2013-07-27 16:59:00,
2013-07-27 13:14:00,87.2,75.0,29.95,East,100,3.0,5.0,67,0.00,,,0.01,weatherlink.com 1.10,2013-07-27 17:14:00,
2013-07-27 13:29:00,88.0,74.0,29.95,NE,56,3.0,6.0,63,0.00,,,0.01,weatherlink.com 1.10,2013-07-27 17:29:00,
2013-07-27 13:44:00,88.1,74.0,29.95,NE,53,7.0,8.0,63,0.00,,,0.01,weatherlink.com 1.10,2013-07-27 17:44:00,
2013-07-27 13:59:00,89.0,76.0,29.94,ENE,77,5.0,10.0,65,0.00,,,0.01,weatherlink.com 1.10,2013-07-27 17:59:00,
2013-07-27 14:14:00,87.9,75.0,29.94,SSE,150,4.0,10.0,66,0.00,,,0.01,weatherlink.com 1.10,2013-07-27 18:14:00,
2013-07-27 14:29:00,87.2,75.0,29.94,East,94,8.0,11.0,67,0.00,,,0.01,weatherlink.com 1.10,2013-07-27 18:29:00,
2013-07-27 14:44:00,87.4,76.0,29.94,ENE,76,5.0,10.0,68,0.00,,,0.01,weatherlink.com 1.10,2013-07-27 18:44:00,
2013-07-27 14:59:00,87.2,76.0,29.94,ESE,113,5.0,11.0,69,0.00,,,0.01,weatherlink.com 1.10,2013-07-27 18:59:00,
2013-07-27 15:14:00,87.1,76.0,29.93,ENE,61,4.0,13.0,69,0.00,,,0.01,weatherlink.com 1.10,2013-07-27 19:14:00,
2013-07-27 15:29:00,86.3,76.0,29.93,East,95,4.0,10.0,71,0.00,,,0.01,weatherlink.com 1.10,2013-07-27 19:29:00,
2013-07-27 15:44:00,85.4,76.0,29.93,ESE,107,2.0,10.0,74,0.00,,,0.01,weatherlink.com 1.10,2013-07-27 19:44:00,
2013-07-27 15:59:00,82.4,76.0,29.94,SE,131,0.0,8.0,81,0.01,,,0.02,weatherlink.com 1.10,2013-07-27 19:59:00,
2013-07-27 16:14:00,80.4,76.0,29.93,SE,143,0.0,3.0,85,0.02,,,0.03,weatherlink.com 1.10,2013-07-27 20:14:00,
2013-07-27 16:29:00,81.1,77.0,29.93,East,96,0.0,2.0,86,0.02,,,0.03,weatherlink.com 1.10,2013-07-27 20:29:00,
2013-07-27 16:44:00,82.1,76.0,29.93,ENE,75,1.0,3.0,82,0.02,,,0.03,weatherlink.com 1.10,2013-07-27 20:44:00,
2013-07-27 16:59:00,82.2,76.0,29.93,SE,135,1.0,3.0,82,0.01,,,0.03,weatherlink.com 1.10,2013-07-27 20:59:00,
2013-07-27 17:14:00,81.7,77.0,29.93,SE,127,0.0,1.0,85,0.01,,,0.04,weatherlink.com 1.10,2013-07-27 21:14:00,
2013-07-27 17:29:00,81.5,77.0,29.94,East,89,1.0,3.0,85,0.01,,,0.04,weatherlink.com 1.10,2013-07-27 21:29:00,
2013-07-27 17:44:00,81.7,75.0,29.94,East,96,6.0,6.0,81,0.01,,,0.04,weatherlink.com 1.10,2013-07-27 21:44:00,
2013-07-27 17:59:00,81.5,76.0,29.94,East,98,0.0,3.0,83,0.01,,,0.04,weatherlink.com 1.10,2013-07-27 21:59:00,
2013-07-27 18:14:00,81.4,76.0,29.94,SE,125,0.0,3.0,84,0.00,,,0.04,weatherlink.com 1.10,2013-07-27 22:14:00,
2013-07-27 18:29:00,81.3,77.0,29.94,SE,125,0.0,1.0,85,0.00,,,0.04,weatherlink.com 1.10,2013-07-27 22:29:00,
2013-07-27 18:44:00,81.0,76.0,29.94,ESE,113,0.0,1.0,85,0.00,,,0.04,weatherlink.com 1.10,2013-07-27 22:44:00,
2013-07-27 18:59:00,80.8,76.0,29.94,East,96,1.0,2.0,85,0.00,,,0.04,weatherlink.com 1.10,2013-07-27 22:59:00,
2013-07-27 19:14:00,80.5,76.0,29.95,SE,129,0.0,2.0,86,0.00,,,0.04,weatherlink.com 1.10,2013-07-27 23:14:00,
2013-07-27 19:29:00,80.1,76.0,29.95,SE,124,0.0,2.0,87,0.00,,,0.04,weatherlink.com 1.10,2013-07-27 23:29:00,
2013-07-27 19:44:00,79.8,76.0,29.96,SE,124,0.0,2.0,88,0.00,,,0.04,weatherlink.com 1.10,2013-07-27 23:44:00,
2013-07-27 19:59:00,79.6,76.0,29.96,ESE,123,0.0,1.0,88,0.00,,,0.04,weatherlink.com 1.10,2013-07-27 23:59:00,
2013-07-27 20:15:00,79.4,76.0,29.97,ESE,123,0.0,1.0,89,0.00,,,0.04,weatherlink.com 1.10,2013-07-28 00:15:00,
2013-07-27 20:30:00,79.0,76.0,29.97,ESE,123,0.0,1.0,89,0.00,,,0.04,weatherlink.com 1.10,2013-07-28 00:30:00,
2013-07-27 20:45:00,78.9,76.0,29.97,ESE,121,0.0,1.0,89,0.00,,,0.04,weatherlink.com 1.10,2013-07-28 00:45:00,
2013-07-27 21:00:00,78.3,75.0,29.98,ENE,76,1.0,2.0,90,0.00,,,0.04,weatherlink.com 1.10,2013-07-28 01:00:00,
2013-07-27 21:15:00,77.9,75.0,29.98,ESE,120,2.0,2.0,91,0.00,,,0.04,weatherlink.com 1.10,2013-07-28 01:15:00,
2013-07-27 21:30:00,77.9,75.0,29.98,SE,132,0.0,1.0,90,0.00,,,0.04,weatherlink.com 1.10,2013-07-28 01:30:00,
2013-07-27 21:45:00,78.1,75.0,29.99,SE,133,0.0,1.0,90,0.00,,,0.04,weatherlink.com 1.10,2013-07-28 01:45:00,
2013-07-27 22:00:00,78.1,75.0,29.99,SE,133,0.0,1.0,90,0.00,,,0.04,weatherlink.com 1.10,2013-07-28 02:00:00,
2013-07-27 22:15:00,77.8,75.0,29.99,SE,129,0.0,1.0,90,0.00,,,0.04,weatherlink.com 1.10,2013-07-28 02:15:00,
2013-07-27 22:30:00,77.6,75.0,29.99,SE,124,1.0,2.0,91,0.00,,,0.04,weatherlink.com 1.10,2013-07-28 02:30:00,
2013-07-27 22:45:00,77.7,75.0,29.99,East,94,0.0,2.0,91,0.00,,,0.04,weatherlink.com 1.10,2013-07-28 02:45:00,
2013-07-27 23:00:00,77.4,75.0,29.99,East,94,0.0,1.0,91,0.00,,,0.04,weatherlink.com 1.10,2013-07-28 03:00:00,
2013-07-27 23:15:00,77.2,75.0,29.98,East,94,0.0,0.0,92,0.00,,,0.04,weatherlink.com 1.10,2013-07-28 03:15:00,
2013-07-27 23:30:00,76.8,74.0,29.98,East,94,0.0,2.0,92,0.00,,,0.04,weatherlink.com 1.10,2013-07-28 03:30:00,
2013-07-27 23:45:00,77.0,74.0,29.98,SE,127,0.0,2.0,91,0.00,,,0.04,weatherlink.com 1.10,2013-07-28 03:45:00,